ELECTRON KICK STAGE R/B, 59590

Orbit data source: Space-Track

ELECTRON KICK STAGE R/B, 59590 is space debris in SSO originally from a launch on Tue, 23 Apr 2024 UTC launched from the Rocket Lab Launch Complex (RLLC). Debris objects in space refer to the collection of defunct objects orbiting the Earth. Examples of debris include non-operational satellites, rocket bodies, and fragments generated from explosions, collisions, or faulty payload assembly.

Loading next visibility...
Identifier
59590, 2024-077D
Orbit
SSO
Country
Flag of USUS
Related business
Manufacturer
Rocket Lab
Mission
Spacecraft
Bus & Motor
KICK STAGE, CURIE
Mass
~50 kg wet, ~50 kg dry
Launch date (UTC)
2024-04-23 (2 years ago)
Launch vehicle
Unknown
Launch site
Rocket Lab Launch Complex (RLLC)
Object type
Payload
Rocket body
Debris
Shape & HBR
Trunc Cone, 0.7 m
Radar Cross Section
0.760 m², Large (>1 m²)

Expand to show TLE details & history
Last TLE update: 6 hours ago

TLE from 6 hours ago
0 ELECTRON KICK STAGE R/B
1 59590U 24077D   26254.59854539  .00004510  00000-0  42731-3 0  9995
2 59590  97.3313 242.5484 0342013 330.9879  27.2684 14.58850648126497
Epoch: 2026-09-11T14:21Z
TLE epoch observation values (Epoch: 2026-09-11T14:21:54.321Z)
Latitude
-0.00009°
Longitude
36.45248°
Altitude
486.594 km
Speed
7.736 km/s
True Right ascension
16h 10m 11s
True Declination
0° 00' 00"
Sunlit
Object was in daylight at epoch
Visualization orbit readout
Latitude
Unknown
Longitude
Unknown
Altitude
Unknown
Speed
Unknown
Apparent Right ascension
Unknown
Apparent Declination
Unknown
Sunlit
N/A
Visualization observer readout
Local Sidereal Time
13:09:24
Azimuth
Unknown
Elevation
Unknown
Doppler factor
Unknown
Orbital elements
Apogee altitude
935.801 km
Perigee altitude
452.053 km
Semi-major axis
7,072.064 km
Eccentricity
0.0342
Inclination
97.3313°
RAAN
242.5484°
Arg. of periapsis
330.9879°
True anomaly
29.13449°
Mean anomaly
27.2684°
Eccentric anomaly
28.19423°
Mean motion
3.64942 °/min
Orbital period
98.65 mins
BSTAR
0.00042731
Loading maneuver chart data...
Computing Atmospheric mass density...
Loading historical data...
Loading historical data...
Loading historical data...
Loading historical data...
Loading historical data...
Loading historical data...
Loading historical data...
Other satellites on launch #77 in the year 2024 (2024-04-23 UTC)

Documentation

Showing up to 5 results
|